Regional Weather Roundup
Issued by NWS

Home | Current Version | Previous Version | Graphics & Text | Print | Product List | Glossary On
Versions: 1 2 3 4 5 6 7 8 9 10 11 12 13 14 15 16 17 18 19 20 21 22 23 24 25 26 27 28 29 30 31 32 33 34 35 36 37 38 39 40 41 42 43 44 45 46 47 48 49 50
000
ASUS45 KSLC 260610
RWRUT

UTAH REGIONAL WEATHER ROUNDUP
NATIONAL WEATHER SERVICE SALT LAKE CITY UT
1100 PM MST SAT FEB 25 2017

UTZ001>011-023>025-260700-

NORTHERN UTAH

CITY           SKY/WX    TMP DP  RH WIND       PRES   REMARKS
BRIGHAM CITY     N/A     24  15  68 S3        29.99S
HILL AFB       MOCLDY    23  18  80 S9        29.96S WCI  13
LOGAN          CLEAR     16  11  80 CALM      29.98F
OGDEN          PTCLDY    23  18  81 S6        29.97S WCI  16
SALT LAKE CITY PTCLDY    25  17  72 SE7       29.99S WCI  17
TOOELE VALLEY  CLEAR     21  18  86 S9        30.00S WCI  11
WENDOVER       CLEAR     23  14  68 CALM      29.99S
HEBER CITY     CLEAR      3   0  85 CALM      29.94S
WEST JORDAN    CLEAR     26  22  82 SW7       29.98S WCI  19

$$

UTZ011>015-024>027-260700-

CENTRAL/NORTHEAST UTAH

CITY           SKY/WX    TMP DP  RH WIND       PRES   REMARKS
PROVO AIRPORT  CLEAR     18  14  84 CALM      30.00F
MOAB/CANYONLAN PTCLDY    31  11  43 W8        29.92S WCI  23
DELTA          CLEAR     25  19  80 N3        29.98S
PRICE          CLEAR     22   8  55 NW8       29.91S WCI  12
ROOSEVELT      CLEAR     21  10  63 N3        29.95S
VERNAL         CLOUDY    12   3  67 NW6       29.94R WCI   3

$$

UTZ013>016-019>022-027-260700-

SOUTHERN UTAH

CITY           SKY/WX    TMP DP  RH WIND       PRES   REMARKS
BRYCE CANYON   CLEAR     10   6  84 W6        29.89R WCI   0
CEDAR CITY     MOCLDY    26  23  88 CALM      29.93R
MILFORD        CLOUDY    27  23  85 NW7       29.96S WCI  19
ST GEORGE      CLEAR     38  23  55 S5        29.96S WCI  34
HANKSVILLE     CLOUDY    36  12  38 NE3       29.97R
KANAB          CLEAR     28  19  69 NE2       29.97S
BLANDING       PTCLDY    26  15  63 N5        29.95S WCI  20

$$

REGIONAL REPORTS     COLORADO/ARIZONA

CITY           SKY/WX    TMP DP  RH WIND       PRES   REMARKS
CRAIG, CO      CLOUDY    17  11  77 CALM      29.90R
GRAND JUNCTION MOCLDY    30  13  49 CALM      29.92S
RIFLE, CO      CLOUDY    25  12  58 SW8       29.92R WCI  16
MONTROSE, CO   CLOUDY    28  12  51 CALM      29.95R
CORTEZ, CO     CLOUDY    27  18  69 E3        29.89R
COLORADO CITY    N/A     27  21  80 SE6       29.96S WCI  20
PAGE, AZ       CLEAR     42   5  21 W9        29.91R
GRAND CANYON   CLOUDY    31  16  54 SW10      29.94F WCI  22
KINGMAN, AZ    CLOUDY    44  12  27 SE8       29.94F
FLAGSTAFF, AZ  CLOUDY    27  20  75 W9        29.96S WCI  18

$$

REGIONAL REPORTS    NEVADA/IDAHO/WYOMING

CITY           SKY/WX    TMP DP  RH WIND       PRES   REMARKS
LAS VEGAS, NV  MOCLDY    46  20  35 N6        29.92S
ELY, NY        PTCLDY    11   7  84 S9        29.94S WCI  -2
ELKO, NV       CLEAR     22  14  71 CALM      29.97S
POCATELLO, ID  CLOUDY    20   8  60 S13       29.95S WCI   7
BURLEY, ID     CLEAR     22  11  62 SW8       29.96S WCI  12
FORT BRIDGER,    N/A      8   6  92 W15       29.89R WCI  -9
EVANSTON, WY   CLOUDY     4   0  83 SW10      29.86F WCI -11
ROCK SPRINGS,  CLEAR      9   3  77 W18       29.84R WCI -10
KEMMERER, WY     N/A      3   0  85 W9        29.83S WCI -11

$$



USA.gov is the U.S. government's official web portal to all federal, state and local government web resources and services.